Location: Warszawa
(52.2500°N, 21.0000°E)
Time: 21:12:30
(UTC+02:00)

Vanguard 2 - Pass Details

Date: 08 February 2023
Orbit: 553 x 2927 km, 32.9° (Epoch: 27 March)

Event Time Altitude Azimuth Distance (km) Brightness Sun altitude
Rises 21:10:48 0° 235° (SW) 5,031 11.9 -41.1°
Reaches altitude 10° 21:14:09 10° 226° (SW) 4,354 11.4 -41.5°
Enters shadow 21:18:55 25° 207° (SSW) 3,695 10.8 -42.1°
